Location: Berkeley
(37.8716°N, 122.2727°W)
Time: 00:06:54
(UTC-07:00)

Amateur Radio Satellites - All Passes

Search period start: 28 June 2017 23:36
Search period end: 29 June 2017 23:36
Location: Berkeley, 37.8716°N, 122.2727°W

Satellite Date Start Highest point End Downlink Frequencies (MHz)
Time Altitude Azimuth
YUBILEINY 28 Jun 23:42:34 23:50:06 31° 289° (WNW) 23:57:43 435.215
TIGRISAT 28 Jun 23:46:58 23:51:19 42° 288° (WNW) 23:55:33 435.000
NANOSAT C BR1 28 Jun 23:52:51 23:53:50 11° 91° (E) 23:54:48 145.865
SPROUT 28 Jun 23:54:19 23:57:34 21° 68° (ENE) 00:00:49 437.525
VELOX 1 29 Jun 00:02:15 00:05:47 25° 69° (ENE) 00:09:21 145.980
PRISM 29 Jun 00:06:18 00:09:28 22° 292° (WNW) 00:12:38 437.425
SO-50 29 Jun 00:07:06 00:10:27 20° 249° (WSW) 00:13:48 436.795
ESTCUBE 1 29 Jun 00:16:47 00:21:08 49° 260° (W) 00:25:30 437.505/2401.250
AIST 2D 29 Jun 00:18:40 00:22:08 60° 100° (E) 00:25:33 435.315
50 SAT 29 Jun 00:21:20 00:23:03 13° 68° (ENE) 00:24:46 437.505
POLYITAN 1 29 Jun 00:31:43 00:35:40 35° 98° (E) 00:39:34 437.675
UNISAT 6 29 Jun 00:31:48 00:34:14 14° 296° (WNW) 00:36:38 437.425
FO-29 29 Jun 00:33:18 00:39:22 25° 299° (WNW) 00:45:20 435.910
QB50P2 29 Jun 00:42:37 00:46:48 53° 100° (E) 00:50:58 145.880/145.840
EO-79 29 Jun 01:05:38 01:09:56 88° 279° (W) 01:14:11 145.935-145.965
RS-15 29 Jun 01:08:17 01:16:16 19° 349° (NNW) 01:24:12 29.354- 29.394
DUCHIFAT 1 29 Jun 01:14:53 01:19:09 86° 284° (WNW) 01:23:22 145.980
NANOSAT C BR1 29 Jun 01:25:41 01:29:52 56° 286° (WNW) 01:34:00 145.865
SPROUT 29 Jun 01:29:31 01:33:16 29° 263° (W) 01:37:02 437.525
VELOX 1 29 Jun 01:38:25 01:42:06 26° 264° (W) 01:45:49 145.980
DX 1 29 Jun 01:44:22 01:48:40 72° 258° (WSW) 01:53:00 434.975-435.025
50 SAT 29 Jun 01:52:38 01:55:34 28° 263° (W) 01:58:30 437.505
UKube-1 29 Jun 01:53:19 01:57:36 86° 253° (WSW) 02:01:56 .
Gurwin Techsat 1B 29 Jun 02:05:52 02:09:56 22° 94° (E) 02:13:57 435.225
POLYITAN 1 29 Jun 02:08:16 02:11:09 18° 293° (WNW) 02:14:01 437.675
BUGSAT 1 29 Jun 02:09:05 02:13:20 71° 285° (WNW) 02:17:30 437.445
NO-84 29 Jun 02:15:51 02:17:41 12° 20° (NNE) 02:19:33 435.350 FM
Oscar 19 29 Jun 02:19:37 02:24:34 48° 100° (E) 02:29:30 437.125/150
QB50P2 29 Jun 02:20:16 02:22:06 13° 296° (WNW) 02:23:55 145.880/145.840
ITUPSAT 1 29 Jun 03:06:59 03:11:38 52° 73° (ENE) 03:16:19 437.325
BEESAT 29 Jun 03:14:10 03:18:54 63° 73° (ENE) 03:23:38 436.000
RS-15 29 Jun 03:25:59 03:35:18 24° 26° (NNE) 03:44:19 29.354- 29.394
Gurwin Techsat 1B 29 Jun 03:45:01 03:50:01 43° 289° (WNW) 03:54:59 435.225
MOZHAYETS 4 29 Jun 03:46:53 03:51:32 88° 71° (ENE) 03:56:12
NO-84 29 Jun 03:52:02 03:56:15 44° 39° (NE) 04:00:23 435.350 FM
Oscar 19 29 Jun 03:59:56 04:03:30 19° 295° (WNW) 04:07:03 437.125/150
AO-85 29 Jun 04:01:26 04:04:15 17° 49° (NE) 04:07:10 145.980
AO-7 29 Jun 04:02:14 04:09:57 39° 99° (E) 04:17:35 .
CUBESAT XI-V 29 Jun 04:38:46 04:43:18 56° 74° (ENE) 04:47:50 437.345
ITAMSAT 1 29 Jun 04:44:51 04:50:07 89° 102° (ESE) 04:55:20 435.822/435.867
ITUPSAT 1 29 Jun 04:47:00 04:49:44 15° 268° (W) 04:52:28 437.325
KKS-1 29 Jun 04:51:26 04:55:44 51° 73° (ENE) 05:00:02 437.445
BEESAT 3 29 Jun 04:51:44 04:55:18 29° 52° (NE) 04:58:47 437.485
BEESAT 29 Jun 04:55:13 04:57:02 12° 269° (W) 04:58:53 436.000
STARS 29 Jun 05:09:59 05:13:55 33° 70° (ENE) 05:17:54 437.465
NO-84 29 Jun 05:30:05 05:33:38 25° 235° (SW) 05:37:06 435.350 FM
RS-15 29 Jun 05:38:43 05:50:50 66° 54° (NE) 06:02:16 29.354- 29.394
AO-85 29 Jun 05:40:47 05:44:48 46° 244° (WSW) 05:49:07 145.980
Tancredo 1 29 Jun 05:49:56 05:51:36 14° 129° (SE) 05:53:17 437.200
AO-7 29 Jun 05:54:53 06:02:42 45° 296° (WNW) 06:10:30 .
BEESAT 2 29 Jun 05:59:48 06:03:49 55° 57° (ENE) 06:07:45 435.950
DOVE 4 29 Jun 06:00:14 06:04:34 28° 96° (E) 06:09:00 437.250
XW-2C 29 Jun 06:18:40 06:20:31 13° 93° (E) 06:22:22 145.795 - 145.815
CUBESAT XI-V 29 Jun 06:18:55 06:20:58 13° 269° (W) 06:23:01 437.345
CUTE-I 29 Jun 06:19:10 06:22:23 16° 92° (E) 06:25:36 437.470
KAITUO 1B 29 Jun 06:23:11 06:24:11 11° 92° (E) 06:25:11 145.475/437.950
ITAMSAT 1 29 Jun 06:27:20 06:28:46 11° 301° (WNW) 06:30:13 435.822/435.867
BEESAT 3 29 Jun 06:29:38 06:32:41 21° 249° (WSW) 06:35:42 437.485
KKS-1 29 Jun 06:30:32 06:32:33 13° 268° (W) 06:34:34 437.445
O/OREOS (USA 219) 29 Jun 06:32:15 06:36:02 26° 61° (ENE) 06:39:48 437.305
STARS 29 Jun 06:47:08 06:50:18 19° 265° (W) 06:53:31 437.465
NUDT-PHONESAT 29 Jun 06:51:00 06:54:06 25° 96° (E) 06:57:09 437.300
STRAND 1 29 Jun 06:52:47 06:56:57 26° 67° (ENE) 07:01:08 437.568
ISS 29 Jun 06:57:07 07:00:08 36° 134° (SE) 07:03:11 437.550
XW-2F 29 Jun 07:19:16 07:23:01 82° 102° (ESE) 07:26:43 145.980 - 146.000
Tancredo 1 29 Jun 07:23:59 07:26:53 43° 324° (NW) 07:29:48 437.200
XW-2D 29 Jun 07:26:17 07:30:02 73° 283° (WNW) 07:33:45 145.860 - 145.880
HO-68 29 Jun 07:29:00 07:34:36 24° 94° (E) 07:40:08 435.675
XW-2B 29 Jun 07:35:27 07:39:09 57° 285° (WNW) 07:42:49 145.730 - 145.750
DOVE 4 29 Jun 07:37:43 07:42:10 32° 289° (WNW) 07:46:45 437.250
BEESAT 2 29 Jun 07:39:47 07:41:03 11° 252° (WSW) 07:42:17 435.950
LilacSat-2 29 Jun 07:39:53 07:43:31 46° 286° (WNW) 07:47:06 437.200
CUBEBUG 2 29 Jun 07:43:37 07:45:12 12° 89° (E) 07:46:46 437.445
XW-2C 29 Jun 07:51:23 07:54:49 34° 287° (WNW) 07:58:13 145.795 - 145.815
RS-15 29 Jun 07:52:14 08:02:25 35° 256° (WSW) 08:12:12 29.354- 29.394
KAITUO 1B 29 Jun 07:54:53 07:58:22 40° 286° (WNW) 08:01:50 145.475/437.950
CUTE-I 29 Jun 07:57:30 08:02:47 59° 287° (WNW) 08:08:03 437.470
SEEDS 29 Jun 07:57:33 08:00:36 20° 94° (E) 08:03:37 437.485
YUBILEINY 29 Jun 07:57:42 08:04:32 24° 68° (ENE) 08:11:16 435.215
UWE-3 29 Jun 08:08:07 08:09:58 12° 90° (E) 08:11:48 435.000/436.395/437.385
XW-2A 29 Jun 08:08:24 08:11:18 26° 97° (E) 08:14:10 145.665 - 145.685
O/OREOS (USA 219) 29 Jun 08:11:38 08:15:20 26° 257° (WSW) 08:19:01 437.305
CUTE 1.7 + AOD 2 29 Jun 08:22:18 08:26:29 64° 100° (E) 08:30:38 437.475
NUDT-PHONESAT 29 Jun 08:25:15 08:27:48 18° 291° (WNW) 08:30:19 437.300
STRAND 1 29 Jun 08:31:14 08:35:54 35° 262° (W) 08:40:38 437.568
ISS 29 Jun 08:33:57 08:36:41 24° 331° (NNW) 08:39:26 437.550
AAUSAT CUBESAT 2 29 Jun 08:35:27 08:38:49 24° 95° (E) 08:42:10 437.432
AO-73 29 Jun 08:50:51 08:53:51 18° 93° (E) 08:56:48 145.935
FO-29 29 Jun 08:58:25 09:03:24 25° 61° (ENE) 09:08:50 435.910
TIGRISAT 29 Jun 09:09:12 09:11:22 13° 64° (ENE) 09:13:33 435.000
Oscar 11 29 Jun 09:12:21 09:15:50 24° 95° (E) 09:19:19 .
HO-68 29 Jun 09:15:39 09:22:40 59° 290° (WNW) 09:29:38 435.675
CUBEBUG 2 29 Jun 09:17:37 09:22:13 61° 285° (WNW) 09:26:40 437.445
PRISM 29 Jun 09:19:19 09:21:44 16° 66° (ENE) 09:24:11 437.425
ZACube-1 29 Jun 09:27:29 09:31:48 54° 99° (E) 09:36:00 437.345
SEEDS 29 Jun 09:32:40 09:36:17 29° 289° (WNW) 09:39:53 437.485
XW-2A 29 Jun 09:41:54 09:43:47 14° 292° (WNW) 09:45:38 145.665 - 145.685
UWE-3 29 Jun 09:42:20 09:46:46 54° 286° (WNW) 09:51:03 435.000/436.395/437.385
UNISAT 6 29 Jun 09:50:08 09:54:24 38° 72° (ENE) 09:58:44 437.425
YUBILEINY 29 Jun 09:53:18 10:02:03 69° 267° (W) 10:10:43 435.215
CUTE 1.7 + AOD 2 29 Jun 10:01:22 10:01:44 10° 296° (WNW) 10:02:06 437.475
M-CUBED/EXP-1 PRIME 29 Jun 10:09:00 10:12:09 46° 255° (WSW) 10:15:19 437.505
AAUSAT CUBESAT 2 29 Jun 10:10:51 10:14:09 24° 290° (WNW) 10:17:27 437.432
AO-73 29 Jun 10:26:12 10:30:11 35° 288° (WNW) 10:34:03 145.935
FO-29 29 Jun 10:41:51 10:47:50 55° 261° (W) 10:54:41 435.910
TIGRISAT 29 Jun 10:42:55 10:47:28 62° 260° (W) 10:52:08 435.000
Oscar 11 29 Jun 10:48:19 10:51:53 26° 290° (WNW) 10:55:27 .
EO-88 29 Jun 10:51:48 10:55:24 57° 101° (E) 10:58:57 145.990 - 145.960
AIST 2D 29 Jun 10:52:04 10:54:24 17° 69° (ENE) 10:56:44 435.315
PRISM 29 Jun 10:52:57 10:56:42 37° 261° (W) 11:00:28 437.425
DELFI C3 29 Jun 10:57:16 11:01:12 76° 284° (WNW) 11:05:09 145.870
ZACube-1 29 Jun 11:05:35 11:07:33 13° 296° (WNW) 11:09:29 437.345
POLYITAN 1 29 Jun 11:22:47 11:26:06 22° 68° (ENE) 11:29:25 437.675
PCSat 29 Jun 11:24:26 11:29:46 63° 114° (ESE) 11:35:08 145.827
UNISAT 6 29 Jun 11:27:53 11:31:12 19° 267° (W) 11:34:34 437.425
QB50P2 29 Jun 11:33:22 11:37:08 31° 71° (ENE) 11:40:55 145.880/145.840
YUBILEINY 29 Jun 11:55:35 11:57:03 10° 286° (WNW) 11:58:30 435.215
EO-79 29 Jun 11:55:49 11:59:57 52° 74° (ENE) 12:04:07 145.935-145.965
JUGNU 29 Jun 11:55:59 11:57:20 11° 171° (S) 11:58:42 437.505
DUCHIFAT 1 29 Jun 12:04:25 12:08:32 52° 74° (ENE) 12:12:41 145.980
ESTCUBE 1 29 Jun 12:10:53 12:15:03 37° 98° (E) 12:19:12 437.505/2401.250
Tancredo 1 29 Jun 12:14:54 12:16:36 14° 23° (NNE) 12:18:18 437.200
NANOSAT C BR1 29 Jun 12:15:18 12:19:31 81° 78° (ENE) 12:23:48 145.865
AIST 2D 29 Jun 12:24:26 12:27:24 25° 264° (W) 12:30:22 435.315
LO-87 29 Jun 12:33:17 12:36:52 54° 285° (WNW) 12:40:25 145.935 - 145.965
SO-50 29 Jun 12:39:40 12:42:48 19° 110° (ESE) 12:45:56 436.795
BUGSAT 1 29 Jun 12:56:27 13:00:32 60° 75° (ENE) 13:04:41 437.445
POLYITAN 1 29 Jun 12:58:00 13:01:42 28° 264° (W) 13:05:26 437.675
PCSat 29 Jun 13:09:44 13:13:35 19° 312° (NW) 13:17:29 145.827
QB50P2 29 Jun 13:09:49 13:12:56 20° 266° (W) 13:16:04 145.880/145.840
SPROUT 29 Jun 13:16:13 13:20:25 50° 100° (E) 13:24:34 437.525
50 SAT 29 Jun 13:16:57 13:19:13 17° 95° (E) 13:21:28 437.505
Gurwin Techsat 1B 29 Jun 13:25:05 13:29:38 30° 68° (ENE) 13:34:13 435.225
ISS 29 Jun 13:26:28 13:29:21 27° 31° (NNE) 13:32:12 437.550
VELOX 1 29 Jun 13:29:06 13:33:31 63° 102° (ESE) 13:37:55 145.980
EO-79 29 Jun 13:34:28 13:35:59 12° 269° (W) 13:37:31 145.935-145.965
Oscar 19 29 Jun 13:34:33 13:39:36 59° 73° (ENE) 13:44:39 437.125/150
DX 1 29 Jun 13:34:49 13:38:13 22° 95° (E) 13:41:35 434.975-435.025
JUGNU 29 Jun 13:42:51 13:45:28 13° 181° (S) 13:48:05 437.505
DUCHIFAT 1 29 Jun 13:43:01 13:44:29 12° 269° (W) 13:45:57 145.980
UKube-1 29 Jun 13:43:01 13:45:55 17° 94° (E) 13:48:49 .
ESTCUBE 1 29 Jun 13:48:26 13:51:33 19° 293° (WNW) 13:54:40 437.505/2401.250
Tancredo 1 29 Jun 13:49:29 13:52:32 86° 221° (SW) 13:55:34 437.200
SO-50 29 Jun 14:18:35 14:22:56 43° 306° (NW) 14:27:16 436.795
ITAMSAT 1 29 Jun 14:24:49 14:27:21 14° 61° (ENE) 14:29:53 435.822/435.867
50 SAT 29 Jun 14:49:13 14:51:57 22° 289° (WNW) 14:54:40 437.505
SPROUT 29 Jun 14:53:44 14:55:50 14° 295° (WNW) 14:57:57 437.525
AO-7 29 Jun 14:59:09 15:06:57 47° 64° (ENE) 15:14:47 .
ISS 29 Jun 15:02:51 15:05:50 31° 227° (SW) 15:08:46 437.550
Gurwin Techsat 1B 29 Jun 15:04:47 15:09:28 31° 263° (W) 15:14:11 435.225
VELOX 1 29 Jun 15:07:48 15:09:24 12° 297° (WNW) 15:11:00 145.980
DX 1 29 Jun 15:10:33 15:14:22 30° 290° (WNW) 15:18:10 434.975-435.025
ITUPSAT 1 29 Jun 15:10:38 15:13:22 15° 92° (E) 15:16:04 437.325
Oscar 19 29 Jun 15:16:27 15:19:16 15° 268° (W) 15:22:06 437.125/150
BEESAT 29 Jun 15:17:03 15:20:19 18° 94° (E) 15:23:34 436.000
UKube-1 29 Jun 15:18:04 15:22:02 36° 289° (WNW) 15:25:59 .
SRMSAT 29 Jun 15:36:31 15:39:05 13° 176° (S) 15:41:38 437.500
MOZHAYETS 4 29 Jun 15:44:20 15:47:58 23° 95° (E) 15:51:33
ITAMSAT 1 29 Jun 16:00:58 16:06:09 72° 257° (WSW) 16:11:23 435.822/435.867
CUBESAT XI-V 29 Jun 16:38:15 16:41:01 16° 92° (E) 16:43:46 437.345
KKS-1 29 Jun 16:46:26 16:47:47 11° 91° (E) 16:49:07 437.445
ITUPSAT 1 29 Jun 16:46:49 16:51:28 51° 287° (WNW) 16:56:03 437.325
AO-7 29 Jun 16:52:12 16:59:44 38° 261° (W) 17:07:22 .
BEESAT 29 Jun 16:53:44 16:58:14 42° 289° (WNW) 17:02:42 436.000
DOVE 4 29 Jun 17:05:08 17:08:05 19° 67° (ENE) 17:11:07 437.250
MOZHAYETS 4 29 Jun 17:21:06 17:25:06 31° 290° (WNW) 17:29:04
SRMSAT 29 Jun 17:25:17 17:27:22 12° 187° (S) 17:29:27 437.500
CUTE-I 29 Jun 17:38:59 17:43:05 23° 65° (ENE) 17:47:12 437.470
HO-68 29 Jun 17:57:52 18:01:55 16° 56° (NE) 18:05:57 435.675
XW-2F 29 Jun 17:58:23 18:01:41 28° 72° (ENE) 18:04:59 145.980 - 146.000
XW-2D 29 Jun 18:05:28 18:09:01 38° 73° (ENE) 18:12:35 145.860 - 145.880
CUBESAT XI-V 29 Jun 18:14:11 18:18:35 45° 287° (WNW) 18:22:57 437.345
XW-2B 29 Jun 18:14:27 18:18:09 48° 75° (ENE) 18:21:50 145.730 - 145.750
LilacSat-2 29 Jun 18:19:19 18:23:08 61° 76° (ENE) 18:26:56 437.200
KKS-1 29 Jun 18:20:15 18:24:41 60° 286° (WNW) 18:29:05 437.445
XW-2C 29 Jun 18:30:02 18:33:52 80° 76° (ENE) 18:37:43 145.795 - 145.815
KAITUO 1B 29 Jun 18:32:24 18:36:08 64° 76° (ENE) 18:39:52 145.475/437.950
STARS 29 Jun 18:36:33 18:41:01 84° 101° (ESE) 18:45:27 437.465
DOVE 4 29 Jun 18:41:46 18:45:31 32° 264° (W) 18:49:25 437.250
SEEDS 29 Jun 18:49:08 18:50:33 12° 65° (ENE) 18:51:59 437.485
NUDT-PHONESAT 29 Jun 19:01:17 19:04:57 52° 260° (W) 19:08:38 437.300
CUTE 1.7 + AOD 2 29 Jun 19:13:03 19:16:54 35° 72° (ENE) 19:20:45 437.475
CUTE-I 29 Jun 19:17:48 19:22:49 42° 261° (W) 19:27:54 437.470
AAUSAT CUBESAT 2 29 Jun 19:25:05 19:27:05 13° 66° (ENE) 19:29:05 437.432
XW-2F 29 Jun 19:33:17 19:35:49 17° 266° (W) 19:38:22 145.980 - 146.000
HO-68 29 Jun 19:41:24 19:48:36 87° 73° (ENE) 19:55:50 435.675
XW-2D 29 Jun 19:41:36 19:43:21 13° 268° (W) 19:45:06 145.860 - 145.880
AO-73 29 Jun 19:45:23 19:47:29 13° 64° (ENE) 19:49:36 145.935
BEESAT 2 29 Jun 19:50:55 19:53:06 14° 109° (ESE) 19:55:17 435.950
XW-2B 29 Jun 19:52:21 19:52:34 10° 269° (W) 19:52:48 145.730 - 145.750
AO-85 29 Jun 19:53:29 19:57:35 86° 119° (ESE) 20:01:32 145.980
RS-15 29 Jun 19:58:34 20:09:55 50° 109° (ESE) 20:21:32 29.354- 29.394
Oscar 11 29 Jun 20:06:10 20:08:47 16° 66° (ENE) 20:11:24 .
XW-2A 29 Jun 20:09:37 20:13:00 57° 260° (W) 20:16:25 145.665 - 145.685
CUBEBUG 2 29 Jun 20:12:56 20:17:33 87° 76° (ENE) 20:22:20 437.445
PCSat 29 Jun 20:14:15 20:19:12 35° 55° (NE) 20:24:07 145.827
BEESAT 3 29 Jun 20:16:18 20:20:15 88° 300° (WNW) 20:24:18 437.485
ZACube-1 29 Jun 20:21:00 20:25:08 35° 71° (ENE) 20:29:17 437.345
SEEDS 29 Jun 20:21:37 20:25:44 56° 260° (W) 20:29:52 437.485
UWE-3 29 Jun 20:36:28 20:41:05 87° 257° (WSW) 20:45:47 435.000/436.395/437.385
O/OREOS (USA 219) 29 Jun 20:42:18 20:46:34 42° 106° (ESE) 20:50:51 437.305
STRAND 1 29 Jun 20:42:54 20:48:05 90° 205° (SSW) 20:53:13 437.568
NO-84 29 Jun 20:44:22 20:48:04 78° 316° (NW) 20:52:08 435.350 FM
CUTE 1.7 + AOD 2 29 Jun 20:50:00 20:52:48 17° 267° (W) 20:55:37 437.475
YUBILEINY 29 Jun 20:56:47 21:03:56 29° 83° (E) 21:11:06 435.215
AAUSAT CUBESAT 2 29 Jun 20:58:11 21:02:07 45° 261° (W) 21:06:05 437.432
SO-50 29 Jun 21:12:28 21:14:37 13° 43° (NE) 21:16:46 436.795
AO-73 29 Jun 21:18:41 21:23:10 59° 260° (W) 21:27:42 145.935
BEESAT 2 29 Jun 21:26:38 21:30:26 43° 305° (NW) 21:34:18 435.950
EO-88 29 Jun 21:28:25 21:31:03 19° 69° (ENE) 21:33:41 145.990 - 145.960
HO-68 29 Jun 21:33:17 21:37:05 15° 270° (W) 21:40:55 435.675
Oscar 11 29 Jun 21:40:26 21:44:33 42° 261° (W) 21:48:41 .
DELFI C3 29 Jun 21:40:36 21:44:19 43° 74° (ENE) 21:48:02 145.870
M-CUBED/EXP-1 PRIME 29 Jun 21:50:16 21:51:06 11° 98° (E) 21:51:57 437.505
FO-29 29 Jun 21:53:10 21:59:49 29° 93° (E) 22:06:11 435.910
PCSat 29 Jun 21:57:47 22:02:28 30° 252° (WSW) 22:07:09 145.827
ZACube-1 29 Jun 21:58:02 22:01:26 21° 266° (W) 22:04:53 437.345
RS-15 29 Jun 22:10:39 22:22:25 52° 311° (NW) 22:34:25 29.354- 29.394
O/OREOS (USA 219) 29 Jun 22:23:04 22:26:10 18° 302° (WNW) 22:29:15 437.305
NO-84 29 Jun 22:23:53 22:26:18 15° 335° (NNW) 22:28:49 435.350 FM
STRAND 1 29 Jun 22:25:25 22:26:27 11° 300° (WNW) 22:27:28 437.568
PRISM 29 Jun 22:35:42 22:39:21 30° 97° (E) 22:43:01 437.425
TIGRISAT 29 Jun 22:36:33 22:40:40 32° 96° (E) 22:44:40 435.000
SO-50 29 Jun 22:51:06 22:55:38 82° 242° (WSW) 23:00:12 436.795
YUBILEINY 29 Jun 22:51:32 23:00:07 57° 281° (WNW) 23:08:49 435.215
EO-88 29 Jun 23:01:33 23:04:33 24° 264° (W) 23:07:35 145.990 - 145.960
LO-87 29 Jun 23:07:20 23:10:41 40° 73° (ENE) 23:14:03 145.935 - 145.965
ESTCUBE 1 29 Jun 23:08:45 23:12:34 28° 70° (ENE) 23:16:24 437.505/2401.250
DELFI C3 29 Jun 23:17:53 23:19:17 12° 268° (W) 23:20:41 145.870
UNISAT 6 29 Jun 23:19:48 23:24:25 77° 284° (WNW) 23:28:55 437.425
M-CUBED/EXP-1 PRIME 29 Jun 23:21:51 23:25:40 56° 290° (WNW) 23:29:48 437.505
